Wind_Speed
24 26 29 30 35 32 32 29 28 28 28 26 24 24 24 23 22 19 19 19 19 21 22 23 20 20 21 22 24 23 22 18 14 13 18 23 22 18 14 14 15 17 20 14 16
25 23 22 26 32 32 28 26 26 26 24 24 25 24 24 22 21 20 21 20 19 20 20 21 20 18 19 21 22 22 20 20 21 20 21 24 19 15 11 10 11 14 17 14 12
28 25 22 22 23 25 25 24 25 26 25 25 26 26 24 22 20 20 19 19 19 18 19 18 18 17 19 21 20 20 20 26 27 25 21 21 19 16 10 7 12 15 16 10 13
32 30 25 23 24 26 28 29 31 30 28 25 25 25 23 21 21 19 18 18 19 18 18 17 18 18 19 19 20 20 23 26 28 25 24 24 23 22 13 9 10 13 16 14 5
37 34 32 30 27 28 29 33 34 29 25 24 24 21 20 20 19 18 18 18 19 19 19 18 19 19 20 19 18 19 22 22 25 24 25 26 26 25 16 17 13 12 19 13 9
23 25 34 37 35 33 29 24 23 23 22 22 21 20 19 19 18 18 18 19 19 20 18 19 21 22 23 23 21 21 22 24 26 29 28 28 28 22 18 21 14 15 22 27 23
21 19 17 18 20 21 22 22 23 22 22 21 20 19 18 19 18 18 18 19 20 20 20 22 23 24 26 27 27 25 25 27 31 31 30 32 29 24 31 24 17 18 23 32 31
17 17 16 16 17 18 19 20 22 21 20 19 18 18 18 18 18 18 18 17 18 20 22 23 24 26 28 29 30 29 28 30 31 32 34 35 29 32 31 27 24 22 21 24 29
18 18 18 18 18 19 20 20 19 18 18 17 17 16 16 17 16 16 15 15 16 19 22 23 24 26 27 28 28 29 29 30 31 34 36 35 34 34 33 32 28 24 26 26 28
16 17 16 16 17 17 17 18 17 17 16 16 16 16 17 16 15 14 13 14 15 17 20 21 22 23 24 27 29 29 28 29 30 32 34 35 34 32 32 31 29 24 26 29 30
14 13 12 12 13 15 16 16 16 15 15 15 15 17 18 18 16 16 14 14 16 15 16 17 18 20 22 23 24 25 25 28 29 29 31 32 33 31 31 29 27 25 24 27 31
13 12 11 10 10 12 12 13 13 12 11 10 10 11 13 13 12 10 11 13 15 15 16 19 20 21 21 22 22 23 23 25 28 29 28 30 32 32 32 32 31 28 28 28 30
13 12 11 9 8 8 8 10 11 11 10 10 9 10 9 6 6 10 10 11 12 14 16 20 21 22 24 25 26 27 28 26 27 28 29 30 33 36 36 37 37 34 31 33 32
11 11 10 9 7 7 6 6 7 7 7 6 5 6 5 4 6 7 8 10 10 11 14 15 17 18 20 21 22 24 26 27 29 31 33 33 36 36 37 38 40 41 40 36 39
9 9 7 7 5 5 4 4 6 7 8 9 7 9 7 8 7 9 10 13 14 14 16 18 19 20 20 23 23 24 25 26 27 29 30 34 36 39 40 40 39 39 39 37 35
8 7 7 5 6 6 5 4 5 7 9 10 10 11 11 11 12 13 15 17 18 17 18 20 21 19 19 23 22 21 20 19 18 20 25 28 31 35 37 37 38 38 37 36 37
10 9 9 8 6 7 7 6 7 9 11 11 11 12 14 14 17 17 18 19 20 19 18 21 21 21 18 21 21 21 21 22 23 22 24 24 23 24 28 33 35 36 37 38 40
13 13 12 11 10 10 10 9 10 11 14 13 14 15 16 17 19 21 22 21 20 19 21 22 24 22 20 20 22 22 22 22 24 23 23 23 24 24 25 27 29 31 35 39 44
16 16 15 15 14 14 14 13 13 15 16 16 14 16 18 20 23 22 21 20 19 19 22 24 25 22 22 22 23 25 27 26 25 26 25 26 26 26 28 29 31 32 34 37 39
19 18 19 19 18 18 17 16 17 18 19 18 19 19 19 22 22 21 20 19 18 18 19 22 24 25 27 27 28 27 28 28 29 29 28 27 26 28 30 32 33 33 36 39 42
22 21 21 22 22 22 21 20 20 20 22 21 21 22 22 24 24 23 21 20 19 20 20 21 22 25 26 28 29 30 29 28 29 29 29 29 26 26 26 23 24 23 24 29 33
23 23 23 23 24 24 24 23 23 23 23 24 24 24 25 27 26 26 25 24 23 23 23 23 25 26 28 29 29 29 30 31 32 32 31 28 25 23 21 19 19 22 25 28 28
23 24 22 23 24 25 26 26 26 25 25 25 27 27 27 28 28 27 26 27 26 27 27 26 26 27 27 28 28 29 30 31 32 30 28 26 25 23 20 20 21 25 28 30 33
22 24 24 24 25 26 28 28 28 27 26 25 27 28 30 29 29 30 29 28 28 28 29 28 27 28 28 29 29 30 31 31 31 29 27 25 24 25 22 22 26 28 29 30 33
21 21 23 24 25 27 28 29 28 26 27 26 25 26 28 27 28 30 31 31 32 31 30 31 29 30 29 30 31 31 32 32 28 27 25 25 21 25 26 26 28 29 30 29 35
19 18 19 20 22 23 25 25 26 26 27 25 24 26 27 27 29 30 31 33 34 33 33 33 32 32 29 31 32 30 31 32 30 28 25 26 23 25 23 25 28 29 28 33 36
18 17 16 18 19 20 21 21 22 24 25 25 26 27 27 27 30 33 33 33 33 32 33 33 33 33 31 31 33 30 25 29 28 26 26 24 24 24 24 25 27 28 30 31 32
Wind_Direction
284 292 290 273 251 271 278 276 277 278 279 280 281 281 284 285 279 268 267 263 263 261 262 262 259 252 246 242 246 250 235 229 244 246 241 249 256 267 275 277 273 268 275 303 317
284 285 284 276 263 269 272 275 276 276 277 279 280 279 280 280 274 267 266 264 259 258 260 264 260 250 243 239 244 250 236 224 241 244 241 251 268 286 308 314 311 282 282 264 294
278 279 275 269 265 266 269 276 281 279 278 278 279 275 273 273 269 267 263 259 257 258 262 260 256 249 244 241 244 249 233 226 234 246 256 266 275 276 282 309 304 291 290 292 282
274 275 274 269 268 270 274 278 284 283 279 274 276 275 271 268 268 266 263 258 255 255 258 256 252 251 252 252 253 250 238 234 239 245 258 266 269 274 271 276 269 280 291 312 291
274 269 268 269 270 276 279 280 278 274 269 271 276 275 272 268 266 264 261 260 257 255 256 256 255 257 260 260 259 252 245 241 244 247 252 257 259 262 273 264 259 267 277 287 160
285 280 265 264 268 275 278 272 270 272 272 272 275 275 274 271 270 265 262 260 258 258 256 255 253 251 251 251 249 245 242 238 242 244 245 251 256 260 252 244 235 237 265 263 247
294 286 285 281 277 269 270 271 271 274 276 275 275 277 277 276 273 269 265 263 261 261 257 254 253 254 255 257 255 248 243 241 242 248 254 257 262 261 255 257 249 228 240 252 252
293 288 287 288 282 275 273 272 276 275 277 277 278 280 280 275 272 269 266 265 264 260 258 256 255 255 255 258 258 255 252 250 250 251 255 257 263 266 269 268 263 250 242 246 257
288 284 283 281 276 273 273 274 273 273 274 277 278 277 276 276 269 266 265 264 262 259 256 257 258 259 259 259 260 261 258 256 257 258 262 265 266 267 268 270 268 256 249 241 251
294 290 286 282 278 275 272 268 267 269 271 271 271 273 271 269 270 269 266 264 264 264 264 264 264 266 267 267 268 269 267 265 262 263 263 265 265 265 266 269 268 259 250 245 242
307 302 297 289 281 274 269 267 266 268 268 266 265 265 265 267 270 269 267 263 263 262 268 270 271 271 270 271 270 271 272 271 270 266 266 267 267 264 261 257 258 259 252 251 248
313 310 305 298 290 284 279 274 271 267 263 262 268 269 272 278 279 275 274 273 272 273 269 267 268 268 268 270 271 272 273 271 273 270 264 260 258 257 257 258 256 249 243 242 244
314 313 312 309 309 300 289 274 268 266 263 265 261 262 273 280 276 278 275 266 259 259 260 262 267 269 269 269 270 269 268 266 267 267 267 262 256 251 250 252 253 253 240 241 244
318 311 306 299 297 291 292 283 280 274 267 274 277 262 251 253 244 254 244 262 271 273 275 275 274 273 276 276 277 278 277 274 275 271 265 259 260 255 256 256 256 256 253 245 237
321 321 324 322 311 291 285 299 296 280 255 269 271 272 264 260 254 241 248 259 266 268 270 271 271 275 279 279 278 279 280 280 279 278 274 269 267 266 262 259 259 259 260 257 250
318 317 316 319 314 307 297 287 287 273 256 269 281 265 268 262 258 266 275 278 282 283 284 287 285 287 289 284 284 283 283 281 280 280 277 277 270 270 271 271 268 265 264 262 255
298 294 295 300 299 302 301 290 292 284 280 282 282 279 279 270 277 280 281 282 283 282 281 282 287 292 290 288 288 291 296 300 297 292 288 288 282 279 275 272 271 270 270 269 265
295 288 289 292 294 295 294 286 284 284 283 281 287 286 281 278 276 279 282 283 283 279 281 280 282 286 287 286 286 287 286 285 285 288 291 291 289 284 279 277 276 274 273 272 271
291 283 280 279 279 279 279 279 279 274 276 279 278 282 278 271 274 278 281 283 280 273 270 275 280 285 286 285 285 287 288 288 287 286 284 283 284 282 280 277 278 280 281 281 279
291 284 280 276 275 274 272 275 275 274 276 278 278 280 281 281 281 283 285 288 288 287 287 288 288 290 290 290 288 287 289 290 289 290 289 288 288 288 288 287 287 288 290 290 289
285 282 280 279 277 275 274 271 270 271 274 274 276 278 278 279 280 279 282 283 285 288 288 287 286 289 290 289 289 290 290 290 288 288 288 287 287 287 289 295 302 309 313 311 306
288 282 279 277 276 276 275 274 271 272 271 271 272 272 273 272 271 273 277 280 284 287 288 287 287 288 290 291 290 290 291 289 287 286 282 282 284 282 288 291 295 305 307 314 312
292 287 285 280 278 275 274 273 274 274 274 272 270 269 268 267 268 269 273 278 283 286 287 288 286 286 287 289 290 291 291 291 287 280 274 279 283 276 284 291 300 309 308 308 307
286 281 279 275 276 274 273 274 274 273 270 266 265 266 264 265 269 273 276 280 282 283 284 285 286 284 285 288 292 295 295 294 283 274 270 278 279 277 279 284 295 302 306 306 308
292 283 279 277 273 273 272 273 274 275 272 271 271 269 270 271 270 272 275 278 278 280 281 282 282 280 281 286 292 297 300 295 280 270 270 272 276 275 278 285 295 300 303 304 309
302 297 287 283 280 277 277 275 274 273 274 275 274 271 272 273 272 273 272 273 275 277 278 279 281 279 281 285 290 296 301 286 276 271 271 272 272 276 280 286 294 299 300 303 309
314 307 301 292 287 285 284 283 277 273 273 274 272 273 276 275 275 276 276 276 277 277 277 279 280 280 281 284 288 300 281 279 272 266 265 270 274 278 280 282 290 297 304 310 319
Height
5865 5864 5862 5861 5864 5866 5866 5866 5865 5864 5864 5863 5863 5862 5860 5859 5858 5857 5858 5858 5858 5858 5861 5861 5862 5863 5864 5867 5869 5872 5875 5879 5881 5879 5878 5878 5880 5884 5887 5887 5888 5889 5889 5891 5889
5860 5859 5857 5857 5859 5860 5860 5860 5859 5858 5858 5858 5857 5856 5855 5854 5854 5853 5854 5853 5853 5854 5856 5857 5858 5859 5860 5862 5864 5867 5871 5874 5873 5872 5873 5874 5878 5882 5885 5885 5886 5887 5887 5888 5887
5854 5853 5853 5853 5853 5854 5854 5854 5854 5853 5853 5853 5852 5851 5850 5849 5849 5849 5848 5849 5849 5850 5851 5853 5854 5856 5857 5858 5860 5862 5866 5866 5867 5868 5870 5871 5873 5877 5881 5883 5884 5884 5883 5886 5885
5847 5847 5847 5847 5847 5848 5848 5847 5848 5847 5847 5847 5847 5845 5844 5843 5845 5845 5844 5845 5846 5846 5847 5849 5850 5852 5853 5855 5856 5857 5859 5862 5862 5865 5867 5867 5867 5870 5877 5880 5880 5880 5880 5882 5882
5839 5839 5840 5840 5840 5841 5841 5842 5842 5841 5840 5842 5841 5839 5839 5839 5840 5841 5840 5841 5842 5842 5843 5845 5847 5848 5850 5851 5852 5853 5854 5857 5858 5860 5861 5862 5862 5863 5871 5873 5875 5876 5876 5880 5879
5832 5831 5832 5833 5834 5835 5835 5835 5835 5835 5835 5836 5836 5834 5834 5835 5835 5836 5835 5836 5838 5839 5840 5841 5842 5843 5843 5845 5846 5847 5848 5849 5851 5850 5852 5853 5854 5860 5862 5864 5870 5871 5872 5873 5875
5828 5827 5827 5827 5827 5829 5829 5830 5830 5830 5831 5831 5830 5830 5830 5831 5831 5831 5831 5832 5833 5835 5836 5836 5836 5838 5838 5839 5841 5842 5844 5844 5843 5845 5847 5848 5852 5856 5850 5858 5864 5864 5862 5861 5861
5824 5824 5823 5824 5824 5824 5824 5825 5825 5825 5826 5826 5825 5825 5825 5825 5826 5827 5827 5828 5829 5830 5830 5830 5831 5833 5834 5834 5835 5838 5840 5840 5842 5841 5840 5842 5845 5845 5847 5852 5856 5860 5860 5858 5856
5821 5820 5819 5819 5819 5819 5820 5820 5820 5821 5822 5821 5821 5820 5821 5821 5821 5822 5823 5823 5824 5825 5824 5825 5827 5829 5830 5829 5830 5831 5833 5835 5836 5835 5836 5838 5840 5839 5840 5843 5846 5851 5853 5853 5853
5816 5815 5814 5814 5814 5814 5815 5815 5815 5816 5816 5816 5816 5818 5818 5818 5818 5818 5819 5820 5820 5820 5821 5822 5823 5824 5825 5826 5826 5827 5828 5829 5830 5831 5831 5831 5833 5833 5833 5835 5837 5842 5844 5846 5846
5813 5812 5811 5810 5810 5810 5811 5811 5813 5813 5812 5812 5812 5812 5813 5814 5815 5815 5815 5816 5817 5818 5818 5819 5820 5820 5821 5821 5822 5823 5823 5823 5824 5825 5825 5825 5825 5827 5827 5829 5830 5832 5835 5837 5840
5809 5808 5807 5807 5806 5806 5807 5807 5808 5809 5808 5808 5809 5809 5810 5811 5812 5812 5812 5813 5813 5813 5814 5814 5815 5815 5815 5816 5816 5817 5819 5818 5818 5818 5820 5819 5818 5819 5820 5821 5824 5826 5827 5829 5830
5807 5806 5805 5805 5804 5804 5804 5804 5804 5804 5805 5805 5806 5806 5808 5809 5809 5809 5810 5809 5810 5810 5810 5810 5810 5809 5809 5809 5810 5810 5811 5812 5812 5812 5813 5814 5814 5813 5813 5814 5815 5817 5821 5822 5824
5805 5804 5804 5803 5804 5802 5802 5802 5801 5801 5802 5804 5804 5804 5806 5806 5807 5807 5807 5807 5808 5807 5807 5807 5806 5805 5804 5805 5805 5804 5804 5804 5804 5804 5804 5805 5805 5805 5806 5807 5807 5808 5810 5813 5815
5804 5803 5802 5801 5801 5800 5801 5799 5799 5799 5800 5802 5802 5802 5803 5805 5805 5804 5804 5804 5804 5803 5804 5802 5801 5801 5800 5799 5799 5798 5797 5797 5796 5795 5795 5794 5795 5794 5795 5796 5797 5798 5799 5801 5803
5803 5801 5801 5801 5800 5799 5798 5798 5798 5799 5798 5799 5799 5799 5801 5801 5802 5801 5801 5800 5799 5798 5797 5795 5795 5796 5795 5792 5793 5792 5792 5791 5790 5788 5787 5786 5787 5784 5784 5785 5785 5786 5787 5788 5789
5800 5799 5799 5798 5798 5797 5797 5797 5798 5796 5796 5797 5797 5796 5796 5797 5797 5797 5796 5796 5795 5794 5793 5790 5789 5789 5789 5787 5787 5786 5785 5784 5784 5782 5780 5779 5778 5776 5774 5774 5774 5774 5775 5775 5776
5797 5796 5795 5795 5795 5795 5794 5794 5794 5794 5792 5793 5793 5793 5792 5792 5792 5792 5792 5791 5789 5788 5786 5785 5784 5783 5783 5783 5781 5780 5780 5780 5777 5776 5775 5772 5769 5768 5768 5766 5765 5764 5763 5763 5763
5793 5792 5791 5791 5791 5791 5791 5790 5790 5789 5789 5788 5789 5788 5787 5787 5787 5786 5786 5785 5784 5783 5782 5779 5778 5778 5776 5776 5775 5773 5772 5772 5770 5769 5768 5766 5763 5761 5759 5759 5758 5756 5754 5752 5751
5788 5787 5786 5786 5785 5785 5786 5785 5784 5783 5783 5782 5782 5782 5781 5780 5780 5779 5779 5779 5777 5776 5774 5773 5772 5770 5769 5768 5767 5766 5765 5763 5761 5760 5759 5757 5755 5752 5750 5749 5748 5746 5743 5740 5737
5781 5781 5780 5779 5779 5779 5779 5779 5778 5777 5776 5777 5776 5775 5774 5773 5773 5772 5772 5772 5771 5770 5769 5768 5767 5765 5763 5761 5759 5757 5756 5755 5753 5752 5750 5749 5747 5744 5740 5738 5736 5735 5733 5730 5727
5774 5773 5772 5772 5772 5771 5771 5771 5772 5770 5770 5769 5768 5768 5767 5767 5766 5766 5765 5764 5764 5763 5762 5761 5759 5757 5756 5753 5751 5750 5747 5746 5744 5743 5741 5740 5740 5736 5734 5731 5729 5728 5726 5724 5721
5767 5765 5765 5764 5763 5763 5762 5762 5762 5763 5763 5762 5761 5760 5760 5759 5759 5758 5757 5757 5756 5754 5753 5752 5751 5749 5748 5747 5744 5742 5739 5737 5735 5733 5733 5732 5731 5728 5727 5725 5722 5719 5718 5715 5713
5760 5757 5757 5755 5754 5754 5753 5753 5754 5754 5753 5753 5753 5753 5752 5751 5750 5749 5748 5748 5747 5746 5745 5744 5743 5741 5740 5737 5735 5734 5731 5728 5726 5724 5724 5724 5723 5720 5719 5717 5715 5712 5709 5706 5704
5751 5750 5748 5747 5746 5745 5744 5744 5744 5745 5744 5744 5745 5744 5743 5743 5742 5741 5740 5739 5738 5738 5737 5735 5735 5732 5731 5729 5726 5724 5721 5718 5717 5716 5716 5716 5715 5713 5711 5709 5707 5704 5702 5699 5695
5745 5743 5741 5740 5738 5737 5736 5736 5736 5735 5735 5736 5736 5735 5735 5735 5733 5732 5732 5730 5730 5729 5728 5726 5725 5723 5722 5719 5718 5717 5714 5709 5708 5707 5708 5707 5708 5706 5704 5702 5700 5697 5694 5692 5687
5739 5737 5735 5733 5731 5731 5730 5729 5729 5728 5728 5728 5728 5726 5726 5726 5725 5723 5722 5722 5721 5720 5718 5718 5716 5713 5713 5711 5708 5711 5705 5702 5699 5699 5699 5699 5699 5699 5698 5695 5692 5690 5687 5683 5679